Lebanon, NH

4:26 AM EDT on August 22, 2017 (GMT -0400)
Lebanon Municipal

Weather History for KLEB - November, 2012

Change the Weather History Date:

Wednesday, November 14, 2012

  Actual Average Record
Temperature  
Mean Temperature 34 °F -  
Max Temperature 44 °F 44 °F 66 °F (1973)
Min Temperature 23 °F 27 °F 7 °F (1986)
Degree Days  
Heating Degree Days 32    
Moisture  
Dew Point 22 °F    
Average Humidity 73    
Maximum Humidity 92    
Minimum Humidity 40    
Precipitation  
Precipitation 0.00 in - - ()
Sea Level Pressure  
Sea Level Pressure 30.55 in    
Wind  
Wind Speed 1 mph (NNE)    
Max Wind Speed 9 mph    
Max Gust Speed -    
Visibility 10 miles    
Events      
Averages and records for this station are not official NWS values.
T = Trace of Precipitation, MM = Missing Value Source: NWS Daily Summary

Daily Weather History Graph

Daily Weather History Graph

Search for Another Location

Airport or City:

Trip Planner

Search our weather history database for the weather conditions in past years. The results will help you decide how hot, cold, wet, or windy it might be!

Date:

Astronomy

Nov. 14, 2012 Rise Set
Actual Time 6:42 AM EST 4:24 PM EST
Civil Twilight 6:11 AM EST 4:55 PM EST
Nautical Twilight 5:36 AM EST 5:30 PM EST
Astronomical Twilight 5:03 AM EST 6:03 PM EST
Moon 7:30 AM EST (11/14) 5:08 PM EST (11/14)
Length of Visible Light 10h 43m
Length of Day
9h 41m
New Moon, 1% of the Moon is Illuminated
Nov 14
New Moon
Nov 20
First Quarter
Nov 28
Full
Dec 6
Last Quarter
Dec 13
New

Hourly Weather History & Observations

Time (EST) Temp. Windchill Dew Point Humidity Pressure Visibility Wind Dir Wind Speed Gust Speed Precip Events Conditions
12:53 AM 26.1 °F - 21.9 °F 84% 30.48 in 10.0 mi Calm Calm - N/A   Clear
1:53 AM 24.1 °F - 21.0 °F 88% 30.49 in 10.0 mi Calm Calm - N/A   Clear
2:53 AM 24.1 °F - 21.0 °F 88% 30.50 in 10.0 mi Calm Calm - N/A   Clear
3:53 AM 25.0 °F - 21.0 °F 85% 30.52 in 10.0 mi Calm Calm - N/A   Clear
4:53 AM 23.0 °F - 19.0 °F 85% 30.54 in 10.0 mi Calm Calm - N/A   Clear
5:53 AM 24.1 °F - 19.9 °F 84% 30.56 in 10.0 mi Calm Calm - N/A   Clear
7:53 AM 25.0 °F - 23.0 °F 92% 30.60 in 10.0 mi Calm Calm - N/A   Clear
8:53 AM 32.0 °F - 27.0 °F 82% 30.61 in 10.0 mi Calm Calm - N/A   Clear
9:53 AM 36.0 °F - 27.0 °F 70% 30.60 in 10.0 mi Calm Calm - N/A   Clear
10:53 AM 39.9 °F 35.1 °F 24.1 °F 53% 30.58 in 10.0 mi NNE 6.9 mph - N/A   Clear
11:53 AM 42.1 °F 36.6 °F 21.0 °F 43% 30.55 in 10.0 mi North 9.2 mph - N/A   Clear
12:53 PM 44.1 °F 39.0 °F 21.0 °F 40% 30.53 in 10.0 mi NNE 9.2 mph - N/A   Clear
1:53 PM 44.1 °F 39.5 °F 21.0 °F 40% 30.52 in 10.0 mi NNE 8.1 mph - N/A   Clear
2:53 PM 43.0 °F 39.5 °F 21.0 °F 42% 30.52 in 10.0 mi NNE 5.8 mph - N/A   Clear
3:53 PM 41.0 °F 35.8 °F 21.9 °F 47% 30.53 in 10.0 mi NNE 8.1 mph - N/A   Clear
4:53 PM 34.0 °F - 24.1 °F 67% 30.54 in 10.0 mi Calm Calm - N/A   Clear
5:53 PM 28.9 °F - 23.0 °F 78% 30.55 in 10.0 mi Calm Calm - N/A   Clear
6:53 PM 26.1 °F - 21.0 °F 81% 30.56 in 10.0 mi Calm Calm - N/A   Clear
7:53 PM 27.0 °F - 21.9 °F 81% 30.56 in 10.0 mi Calm Calm - N/A   Clear
8:53 PM 24.1 °F - 19.9 °F 84% 30.56 in 10.0 mi Calm Calm - N/A   Clear
9:53 PM 23.0 °F - 19.9 °F 88% 30.56 in 10.0 mi Calm Calm - N/A   Clear
10:53 PM 24.1 °F - 19.9 °F 84% 30.55 in 10.0 mi Calm Calm - N/A   Clear
11:53 PM 23.0 °F - 19.9 °F 88% 30.53 in 10.0 mi Calm Calm - N/A   Clear